| time (UTC) | temp C | wind direction | speed KPH | gust KPH | rain 1hr cm | rain 24hr cm | rain mn cm | humidity % | barometer mb |
| 20260504015017 | 23 | 45 | 1.6 | 3.2 | 0.00 | 0.00 | 0.00 | 46 | 1008.9 |
| 20260504014517 | 24 | 45 | 1.6 | 3.2 | 0.00 | 0.00 | 0.00 | 45 | 1009.0 |
| 20260504014017 | 24 | 0.0 | 3.2 | 0.00 | 0.00 | 0.00 | 46 | 1009.1 | |
| 20260504013516 | 24 | 45 | 1.6 | 3.2 | 0.00 | 0.00 | 0.00 | 44 | 1009.1 |
| 20260504013016 | 25 | 45 | 1.6 | 1.6 | 0.00 | 0.00 | 0.00 | 44 | 1009.1 |
| 20260504012557 | 25 | 45 | 1.6 | 3.2 | 0.00 | 0.00 | 0.00 | 43 | 1009.1 |
| 20260504012016 | 25 | 45 | 1.6 | 3.2 | 0.00 | 0.00 | 0.00 | 41 | 1009.2 |
| 20260504011517 | 25 | 315 | 1.6 | 1.6 | 0.00 | 0.00 | 0.00 | 39 | 1009.2 |
| 20260504011057 | 26 | 45 | 1.6 | 3.2 | 0.00 | 0.00 | 0.00 | 40 | 1009.2 |
| 20260504010516 | 26 | 0.0 | 3.2 | 0.00 | 0.00 | 0.00 | 41 | 1009.2 | |
| 20260504010017 | 26 | 0.0 | 3.2 | 0.00 | 0.00 | 0.00 | 37 | 1009.3 | |
| 20260504005517 | 26 | 0.0 | 3.2 | 0.00 | 0.00 | 0.00 | 40 | 1009.3 | |
| 20260504005016 | 27 | 315 | 1.6 | 3.2 | 0.00 | 0.00 | 0.00 | 40 | 1009.4 |
| 20260504004516 | 27 | 45 | 1.6 | 3.2 | 0.00 | 0.00 | 0.00 | 38 | 1009.4 |
| 20260504004016 | 28 | 315 | 1.6 | 3.2 | 0.00 | 0.00 | 0.00 | 37 | 1009.4 |
| 20260504003516 | 28 | 0.0 | 3.2 | 0.00 | 0.00 | 0.00 | 40 | 1009.5 | |
| 20260504003016 | 28 | 180 | 1.6 | 11.3 | 0.00 | 0.00 | 0.00 | 36 | 1009.5 |
| 20260504002556 | 29 | 0.0 | 3.2 | 0.00 | 0.00 | 0.00 | 38 | 1009.5 | |
| 20260504002016 | 29 | 225 | 1.6 | 8.0 | 0.00 | 0.00 | 0.00 | 37 | 1009.5 |
| 20260504001517 | 29 | 0.0 | 4.8 | 0.00 | 0.00 | 0.00 | 40 | 1009.5 | |
| 20260504001016 | 29 | 113 | 1.6 | 6.4 | 0.00 | 0.00 | 0.00 | 37 | 1009.6 |
| 20260504000516 | 29 | 135 | 1.6 | 3.2 | 0.00 | 0.00 | 0.00 | 42 | 1009.6 |
| 20260504000016 | 29 | 113 | 1.6 | 4.8 | 0.00 | 0.00 | 0.00 | 42 | 1009.6 |
| 20260503235516 | 28 | 135 | 1.6 | 4.8 | 0.00 | 0.00 | 0.00 | 37 | 1009.6 |
| 20260503235016 | 28 | 113 | 1.6 | 4.8 | 0.00 | 0.00 | 0.00 | 36 | 1009.7 |
| 20260503234516 | 28 | 113 | 1.6 | 6.4 | 0.00 | 0.00 | 0.00 | 36 | 1009.8 |
| 20260503234016 | 28 | 113 | 1.6 | 4.8 | 0.00 | 0.00 | 0.00 | 35 | 1009.8 |
| 20260503233516 | 28 | 113 | 3.2 | 6.4 | 0.00 | 0.00 | 0.00 | 37 | 1009.9 |
| 20260503233016 | 28 | 135 | 1.6 | 4.8 | 0.00 | 0.00 | 0.00 | 37 | 1009.9 |
| 20260503232556 | 28 | 113 | 1.6 | 6.4 | 0.00 | 0.00 | 0.00 | 37 | 1010.0 |
| 20260503232056 | 29 | 113 | 3.2 | 4.8 | 0.00 | 0.00 | 0.00 | 38 | 1010.0 |
| 20260503231516 | 29 | 135 | 1.6 | 9.7 | 0.00 | 0.00 | 0.00 | 37 | 1010.1 |
| 20260503231016 | 29 | 135 | 1.6 | 8.0 | 0.00 | 0.00 | 0.00 | 36 | 1010.2 |
| 20260503230556 | 29 | 135 | 3.2 | 6.4 | 0.00 | 0.00 | 0.00 | 37 | 1010.3 |
| 20260503230056 | 29 | 113 | 1.6 | 6.4 | 0.00 | 0.00 | 0.00 | 37 | 1010.3 |
| 20260503225516 | 29 | 113 | 1.6 | 6.4 | 0.00 | 0.00 | 0.00 | 38 | 1010.4 |
| 20260503225016 | 29 | 135 | 1.6 | 4.8 | 0.00 | 0.00 | 0.00 | 42 | 1010.5 |
| 20260503224516 | 29 | 113 | 3.2 | 6.4 | 0.00 | 0.00 | 0.00 | 38 | 1010.5 |
| 20260503224016 | 29 | 113 | 1.6 | 6.4 | 0.00 | 0.00 | 0.00 | 38 | 1010.5 |
| 20260503223516 | 28 | 113 | 1.6 | 6.4 | 0.00 | 0.00 | 0.00 | 37 | 1010.6 |
| 20260503223017 | 28 | 113 | 3.2 | 6.4 | 0.00 | 0.00 | 0.00 | 38 | 1010.7 |
| 20260503222516 | 28 | 113 | 1.6 | 4.8 | 0.00 | 0.00 | 0.00 | 36 | 1010.8 |
| 20260503222016 | 28 | 113 | 1.6 | 6.4 | 0.00 | 0.00 | 0.00 | 38 | 1010.8 |
| 20260503221516 | 28 | 113 | 3.2 | 6.4 | 0.00 | 0.00 | 0.00 | 38 | 1010.8 |
| 20260503221016 | 27 | 113 | 1.6 | 8.0 | 0.00 | 0.00 | 0.00 | 41 | 1011.0 |
| 20260503220516 | 27 | 135 | 1.6 | 8.0 | 0.00 | 0.00 | 0.00 | 46 | 1011.1 |
| 20260503220016 | 27 | 135 | 3.2 | 9.7 | 0.00 | 0.00 | 0.00 | 43 | 1011.1 |
| 20260503215516 | 27 | 135 | 3.2 | 8.0 | 0.00 | 0.00 | 0.00 | 40 | 1011.2 |
| 20260503215016 | 27 | 135 | 3.2 | 11.3 | 0.00 | 0.00 | 0.00 | 40 | 1011.3 |
| 20260503214516 | 27 | 113 | 3.2 | 6.4 | 0.00 | 0.00 | 0.00 | 43 | 1011.3 |
| 20260503214016 | 27 | 225 | 3.2 | 8.0 | 0.00 | 0.00 | 0.00 | 44 | 1011.4 |
| 20260503213516 | 27 | 135 | 3.2 | 8.0 | 0.00 | 0.00 | 0.00 | 41 | 1011.4 |
| 20260503213015 | 27 | 135 | 3.2 | 9.7 | 0.00 | 0.00 | 0.00 | 45 | 1011.5 |
| 20260503212516 | 26 | 203 | 1.6 | 6.4 | 0.00 | 0.00 | 0.00 | 49 | 1011.6 |
| 20260503212015 | 26 | 135 | 3.2 | 14.5 | 0.00 | 0.00 | 0.00 | 41 | 1011.6 |
| 20260503211516 | 26 | 225 | 3.2 | 8.0 | 0.00 | 0.00 | 0.00 | 47 | 1011.6 |
| 20260503211016 | 26 | 225 | 3.2 | 11.3 | 0.00 | 0.00 | 0.00 | 44 | 1011.6 |
| 20260503210516 | 26 | 225 | 3.2 | 9.7 | 0.00 | 0.00 | 0.00 | 42 | 1011.6 |
| 20260503210056 | 26 | 135 | 3.2 | 6.4 | 0.00 | 0.00 | 0.00 | 45 | 1011.7 |
| 20260503205556 | 26 | 135 | 1.6 | 8.0 | 0.00 | 0.00 | 0.00 | 45 | 1011.8 |
| 20260503205016 | 25 | 113 | 3.2 | 8.0 | 0.00 | 0.00 | 0.00 | 44 | 1011.9 |
| 20260503204516 | 25 | 113 | 1.6 | 14.5 | 0.00 | 0.00 | 0.00 | 49 | 1011.9 |
| 20260503204016 | 25 | 203 | 3.2 | 14.5 | 0.00 | 0.00 | 0.00 | 48 | 1011.9 |
| 20260503203516 | 25 | 135 | 1.6 | 6.4 | 0.00 | 0.00 | 0.00 | 46 | 1012.0 |
| 20260503203016 | 25 | 225 | 3.2 | 9.7 | 0.00 | 0.00 | 0.00 | 46 | 1012.0 |
| 20260503202515 | 25 | 225 | 3.2 | 6.4 | 0.00 | 0.00 | 0.00 | 48 | 1012.1 |
| 20260503202016 | 25 | 225 | 1.6 | 9.7 | 0.00 | 0.00 | 0.00 | 47 | 1012.1 |
| 20260503201556 | 25 | 90 | 1.6 | 4.8 | 0.00 | 0.00 | 0.00 | 50 | 1012.2 |
| 20260503201015 | 24 | 113 | 1.6 | 6.4 | 0.00 | 0.00 | 0.00 | 51 | 1012.3 |
| 20260503200516 | 25 | 135 | 1.6 | 4.8 | 0.00 | 0.00 | 0.00 | 50 | 1012.4 |
| 20260503200016 | 25 | 225 | 1.6 | 6.4 | 0.00 | 0.00 | 0.00 | 47 | 1012.5 |
| 20260503195515 | 25 | 203 | 1.6 | 8.0 | 0.00 | 0.00 | 0.00 | 48 | 1012.6 |
| 20260503195016 | 25 | 113 | 1.6 | 4.8 | 0.00 | 0.00 | 0.00 | 48 | 1012.7 |
| 20260503194516 | 25 | 203 | 1.6 | 3.2 | 0.00 | 0.00 | 0.00 | 48 | 1012.7 |
| 20260503194015 | 25 | 113 | 1.6 | 8.0 | 0.00 | 0.00 | 0.00 | 49 | 1012.7 |
| 20260503193515 | 25 | 113 | 1.6 | 4.8 | 0.00 | 0.00 | 0.00 | 49 | 1012.9 |
| 20260503193056 | 25 | 180 | 1.6 | 6.4 | 0.00 | 0.00 | 0.00 | 49 | 1012.9 |
| 20260503192515 | 25 | 113 | 1.6 | 4.8 | 0.00 | 0.00 | 0.00 | 50 | 1013.0 |
| 20260503192015 | 24 | 113 | 1.6 | 4.8 | 0.00 | 0.00 | 0.00 | 50 | 1013.1 |
| 20260503191516 | 24 | 135 | 1.6 | 4.8 | 0.00 | 0.00 | 0.00 | 53 | 1013.2 |
| 20260503191016 | 24 | 135 | 1.6 | 8.0 | 0.00 | 0.00 | 0.00 | 49 | 1013.2 |
| 20260503190555 | 23 | 113 | 1.6 | 4.8 | 0.00 | 0.00 | 0.00 | 53 | 1013.1 |
| 20260503190015 | 24 | 225 | 1.6 | 4.8 | 0.00 | 0.00 | 0.00 | 48 | 1013.2 |
| 20260503185515 | 24 | 225 | 3.2 | 9.7 | 0.00 | 0.00 | 0.00 | 46 | 1013.2 |
| 20260503185056 | 25 | 113 | 1.6 | 3.2 | 0.00 | 0.00 | 0.00 | 50 | 1013.2 |
| 20260503184515 | 24 | 113 | 1.6 | 3.2 | 0.00 | 0.00 | 0.00 | 50 | 1013.3 |
| 20260503184016 | 24 | 113 | 1.6 | 6.4 | 0.00 | 0.00 | 0.00 | 54 | 1013.3 |
| 20260503183555 | 24 | 135 | 3.2 | 9.7 | 0.00 | 0.00 | 0.00 | 50 | 1013.3 |
| 20260503183015 | 24 | 225 | 1.6 | 8.0 | 0.00 | 0.00 | 0.00 | 57 | 1013.4 |
| 20260503182516 | 24 | 113 | 1.6 | 6.4 | 0.00 | 0.00 | 0.00 | 52 | 1013.4 |
| 20260503182015 | 23 | 135 | 1.6 | 6.4 | 0.00 | 0.00 | 0.00 | 55 | 1013.4 |
| 20260503181515 | 23 | 225 | 1.6 | 9.7 | 0.00 | 0.00 | 0.00 | 52 | 1013.5 |
| 20260503181015 | 23 | 158 | 3.2 | 12.9 | 0.00 | 0.00 | 0.00 | 51 | 1013.5 |
| 20260503180515 | 23 | 225 | 1.6 | 4.8 | 0.00 | 0.00 | 0.00 | 55 | 1013.5 |
| 20260503180015 | 23 | 113 | 1.6 | 3.2 | 0.00 | 0.00 | 0.00 | 57 | 1013.6 |
| 20260503175515 | 22 | 113 | 1.6 | 8.0 | 0.00 | 0.00 | 0.00 | 52 | 1013.6 |
| 20260503175015 | 22 | 225 | 1.6 | 6.4 | 0.00 | 0.00 | 0.00 | 54 | 1013.7 |
| 20260503174515 | 22 | 248 | 1.6 | 8.0 | 0.00 | 0.00 | 0.00 | 56 | 1013.7 |
| 20260503174015 | 22 | 135 | 1.6 | 3.2 | 0.00 | 0.00 | 0.00 | 57 | 1013.7 |
| 20260503173515 | 22 | 180 | 1.6 | 8.0 | 0.00 | 0.00 | 0.00 | 54 | 1013.8 |
| 20260503173015 | 22 | 225 | 1.6 | 4.8 | 0.00 | 0.00 | 0.00 | 55 | 1013.8 |
| 20260503172515 | 22 | 135 | 1.6 | 6.4 | 0.00 | 0.00 | 0.00 | 61 | 1013.8 |
| 20260503172015 | 21 | 203 | 1.6 | 3.2 | 0.00 | 0.00 | 0.00 | 60 | 1013.8 |
| 20260503171517 | 21 | 135 | 1.6 | 4.8 | 0.00 | 0.00 | 0.00 | 63 | 1013.8 |
| 20260503171018 | 21 | 135 | 1.6 | 4.8 | 0.00 | 0.00 | 0.00 | 63 | 1013.8 |
| 20260503170517 | 21 | 225 | 1.6 | 4.8 | 0.00 | 0.00 | 0.00 | 59 | 1013.8 |
| 20260503150557 | 13 | 0 | 1.6 | 3.2 | 0.00 | 0.00 | 0.00 | 83 | 1014.0 |
| 20260503131016 | 11 | 0 | 1.6 | 1.6 | 0.00 | 0.00 | 0.00 | 81 | 1013.6 |
| 20260503130516 | 11 | 0.0 | 1.6 | 0.00 | 0.00 | 0.00 | 81 | 1013.5 | |
| 20260503110556 | 13 | 0 | 1.6 | 1.6 | 0.00 | 0.00 | 0.00 | 74 | 1014.2 |
| 20260503081517 | 16 | 45 | 1.6 | 3.2 | 0.00 | 0.00 | 0.00 | 64 | 1014.3 |
| 20260503081016 | 16 | 45 | 1.6 | 3.2 | 0.00 | 0.00 | 0.00 | 63 | 1014.3 |
| 20260503080516 | 16 | 45 | 1.6 | 3.2 | 0.00 | 0.00 | 0.00 | 63 | 1014.3 |
| 20260503072516 | 16 | 45 | 1.6 | 3.2 | 0.00 | 0.00 | 0.00 | 62 | 1014.2 |
| 20260503072016 | 17 | 45 | 1.6 | 1.6 | 0.00 | 0.00 | 0.00 | 64 | 1014.1 |
| 20260503071516 | 17 | 0.0 | 1.6 | 0.00 | 0.00 | 0.00 | 60 | 1014.1 | |
| 20260503071016 | 17 | 45 | 1.6 | 3.2 | 0.00 | 0.00 | 0.00 | 64 | 1014.1 |
| 20260503070516 | 17 | 45 | 1.6 | 3.2 | 0.00 | 0.00 | 0.00 | 64 | 1014.1 |
| 20260503055055 | 19 | 68 | 1.6 | 6.4 | 0.00 | 0.00 | 0.00 | 51 | 1013.7 |
| 20260503054556 | 19 | 68 | 1.6 | 4.8 | 0.00 | 0.00 | 0.00 | 54 | 1013.6 |
| 20260503054016 | 19 | 45 | 1.6 | 4.8 | 0.00 | 0.00 | 0.00 | 52 | 1013.6 |
| 20260503053515 | 19 | 68 | 1.6 | 4.8 | 0.00 | 0.00 | 0.00 | 54 | 1013.5 |
| 20260503053015 | 19 | 45 | 1.6 | 11.3 | 0.00 | 0.00 | 0.00 | 51 | 1013.6 |
| 20260503052516 | 19 | 45 | 1.6 | 3.2 | 0.00 | 0.00 | 0.00 | 53 | 1013.6 |
| 20260503052016 | 19 | 45 | 1.6 | 4.8 | 0.00 | 0.00 | 0.00 | 54 | 1013.5 |
| 20260503051515 | 18 | 45 | 1.6 | 6.4 | 0.00 | 0.00 | 0.00 | 54 | 1013.6 |
| 20260503051017 | 18 | 45 | 1.6 | 3.2 | 0.00 | 0.00 | 0.00 | 53 | 1013.6 |
| 20260503050557 | 18 | 45 | 1.6 | 3.2 | 0.00 | 0.00 | 0.00 | 55 | 1013.6 |
| 20260503050017 | 18 | 45 | 1.6 | 3.2 | 0.00 | 0.00 | 0.00 | 55 | 1013.5 |
| 20260503045517 | 18 | 45 | 1.6 | 4.8 | 0.00 | 0.00 | 0.00 | 58 | 1013.5 |
| 20260503045017 | 18 | 45 | 1.6 | 3.2 | 0.00 | 0.00 | 0.00 | 56 | 1013.5 |
| 20260503044518 | 18 | 45 | 1.6 | 3.2 | 0.00 | 0.00 | 0.00 | 58 | 1013.4 |
| 20260503044017 | 18 | 45 | 1.6 | 3.2 | 0.00 | 0.00 | 0.00 | 58 | 1013.4 |
| 20260503043557 | 18 | 45 | 1.6 | 1.6 | 0.00 | 0.00 | 0.00 | 60 | 1013.3 |
| 20260503043057 | 18 | 0.0 | 1.6 | 0.00 | 0.00 | 0.00 | 58 | 1013.2 | |
| 20260503042517 | 18 | 0.0 | 1.6 | 0.00 | 0.00 | 0.00 | 58 | 1013.2 | |
| 20260503042015 | 18 | 45 | 1.6 | 1.6 | 0.00 | 0.00 | 0.00 | 59 | 1013.1 |
| 20260503041517 | 18 | 45 | 1.6 | 1.6 | 0.00 | 0.00 | 0.00 | 59 | 1013.1 |
| 20260503041017 | 18 | 45 | 1.6 | 1.6 | 0.00 | 0.00 | 0.00 | 58 | 1013.1 |
| 20260503040517 | 18 | 45 | 1.6 | 3.2 | 0.00 | 0.00 | 0.00 | 59 | 1012.9 |
| 20260503040017 | 18 | 0 | 1.6 | 1.6 | 0.00 | 0.00 | 0.00 | 62 | 1012.8 |
| 20260503035517 | 18 | 45 | 1.6 | 1.6 | 0.00 | 0.00 | 0.00 | 59 | 1012.8 |
| 20260503035017 | 18 | 0.0 | 3.2 | 0.00 | 0.00 | 0.00 | 59 | 1012.8 | |
| 20260503034557 | 19 | 0.0 | 1.6 | 0.00 | 0.00 | 0.00 | 60 | 1012.6 | |
| 20260503034057 | 19 | 0.0 | 3.2 | 0.00 | 0.00 | 0.00 | 59 | 1012.6 | |
| 20260503033558 | 19 | 45 | 1.6 | 1.6 | 0.00 | 0.00 | 0.00 | 59 | 1012.5 |
| 20260503033018 | 19 | 0.0 | 1.6 | 0.00 | 0.00 | 0.00 | 60 | 1012.4 | |
| 20260503032517 | 19 | 45 | 1.6 | 3.2 | 0.00 | 0.00 | 0.00 | 60 | 1012.4 |
| 20260503032017 | 19 | 45 | 1.6 | 3.2 | 0.00 | 0.00 | 0.00 | 60 | 1012.3 |
| 20260503031517 | 20 | 45 | 1.6 | 1.6 | 0.00 | 0.00 | 0.00 | 61 | 1012.3 |
| 20260503031058 | 20 | 45 | 1.6 | 3.2 | 0.00 | 0.00 | 0.00 | 62 | 1012.2 |
| 20260503030517 | 20 | 45 | 1.6 | 1.6 | 0.00 | 0.00 | 0.00 | 59 | 1012.2 |
| 20260503030017 | 20 | 45 | 1.6 | 3.2 | 0.00 | 0.00 | 0.00 | 62 | 1012.2 |
| 20260503025517 | 20 | 45 | 1.6 | 1.6 | 0.00 | 0.00 | 0.00 | 63 | 1012.1 |
| 20260503025017 | 20 | 0.0 | 1.6 | 0.00 | 0.00 | 0.00 | 64 | 1012.1 | |
| 20260503024517 | 20 | 0.0 | 1.6 | 0.00 | 0.00 | 0.00 | 62 | 1012.0 | |
| 20260503024057 | 21 | 45 | 1.6 | 1.6 | 0.00 | 0.00 | 0.00 | 59 | 1012.0 |
| 20260503023517 | 21 | 45 | 1.6 | 3.2 | 0.00 | 0.00 | 0.00 | 60 | 1012.0 |
| 20260503023017 | 21 | 0.0 | 1.6 | 0.00 | 0.00 | 0.00 | 61 | 1012.0 | |
| 20260503022518 | 21 | 0.0 | 3.2 | 0.00 | 0.00 | 0.00 | 61 | 1012.0 | |
| 20260503022057 | 21 | 45 | 1.6 | 1.6 | 0.00 | 0.00 | 0.00 | 61 | 1011.9 |
| 20260503021517 | 21 | 0.0 | 1.6 | 0.00 | 0.00 | 0.00 | 59 | 1011.9 | |
| 20260503021017 | 22 | 0.0 | 1.6 | 0.00 | 0.00 | 0.00 | 58 | 1011.9 | |
| 20260503020516 | 22 | 0.0 | 1.6 | 0.00 | 0.00 | 0.00 | 57 | 1012.0 | |
| 20260503020016 | 22 | 0.0 | 1.6 | 0.00 | 0.00 | 0.00 | 57 | 1012.0 | |
| 20260503015516 | 22 | 315 | 1.6 | 3.2 | 0.00 | 0.00 | 0.00 | 56 | 1011.9 |